Overview Statistics Trail Chart Weather Telemetry Raw packets
 

This is the latest recevied weather packets stored in our database for station/object VE3EP-1. If no packets are shown the sender has not sent any weather packets the latest 10 day(s).

<< 26 27 28 29 30 31 32 >>
Time Temp. Humidity Pressure Rain* Wind** Luminosity Snow
1788025447 21.67° C 58% 1025.2 hPa 0 mm - - -
1788024847 21.67° C 60% 1025.4 hPa 0 mm - - -
1788024247 21.67° C 61% 1025.5 hPa 0 mm - - -
1788023651 21.67° C 64% 1025.6 hPa 0 mm - - -
1788023048 21.11° C 63% 1025.5 hPa 0 mm - - -
1788022448 21.11° C 69% 1025.9 hPa 0 mm - - -
1788021847 21.11° C 70% 1026.1 hPa 0 mm - - -
1788021247 21.67° C 66% 1026.3 hPa 0 mm - - -
1788020647 21.11° C 65% 1026.2 hPa 0 mm - - -
1788020047 21.67° C 61% 1026.3 hPa 0 mm - - -
1788019447 21.67° C 60% 1026.4 hPa 0 mm - - -
1788018848 21.67° C 58% 1026.5 hPa 0 mm - - -
1788018247 20.56° C 60% 1026.6 hPa 0 mm - - -
1788017647 20.56° C 60% 1026.4 hPa 0 mm - - -
1788016447 20° C 59% 1026.5 hPa 0 mm - - -
1788015848 20.56° C 58% 1026.5 hPa 0 mm - - -
1788015247 20.56° C 59% 1026.5 hPa 0 mm - - -
1788014647 20° C 63% 1026.6 hPa 0 mm - - -
1788014047 20° C 64% 1026.6 hPa 0 mm - - -
1788012847 19.44° C 68% 1026.5 hPa 0 mm - - -
1788012247 19.44° C 70% 1026.3 hPa 0 mm - - -
1788011047 18.33° C 69% 1026.5 hPa 0 mm - - -
1788010447 18.33° C 70% 1026.3 hPa 0 mm - - -
1788009847 18.33° C 72% 1026.3 hPa 0 mm - - -
1788009249 17.78° C 72% 1026.2 hPa 0 mm - - -

* Rain latest hour (hover to see other rain measurements)
** Current wind speed in m/s (hover to see current wind gust speed)